Murray, KY

9:35 PM CDT on April 28, 2017 (GMT -0500)
Kyle-Oakley

Weather History for KCEY - May, 2014

Change the Weather History Date:

Tuesday, May 20, 2014

  Actual Average (KPAH) Record (KPAH)
Temperature  
Mean Temperature 73 °F -  
Max Temperature 82 °F 79 °F 94 °F (1987)
Min Temperature 64 °F 58 °F 44 °F (2002)
Cooling Degree Days 8    
Growing Degree Days 23 (Base 50)    
Moisture  
Dew Point 59 °F    
Average Humidity 62    
Maximum Humidity 88    
Minimum Humidity 42    
Precipitation  
Precipitation 0.00 in - - ()
Sea Level Pressure  
Sea Level Pressure 30.04 in    
Wind  
Wind Speed 11 mph (SSW)    
Max Wind Speed 20 mph    
Max Gust Speed 32 mph    
Visibility 10 miles    
Events      
Averages and records for this station are not official NWS values.
T = Trace of Precipitation, MM = Missing Value Source: NWS Daily Summary

Daily Weather History Graph

Daily Weather History Graph

Search for Another Location

Airport or City:

Trip Planner

Search our weather history database for the weather conditions in past years. The results will help you decide how hot, cold, wet, or windy it might be!

Date:

Astronomy

May. 20, 2014 Rise Set
Actual Time 5:42 AM CDT 7:57 PM CDT
Civil Twilight 5:13 AM CDT 8:27 PM CDT
Nautical Twilight 4:37 AM CDT 9:03 PM CDT
Astronomical Twilight 3:58 AM CDT 9:42 PM CDT
Moon 12:31 AM CDT (5/20) 11:45 AM CDT (5/20)
Length of Visible Light 15h 14m
Length of Day
14h 15m
Waning Gibbous, 60% of the Moon is Illuminated
May 20
Waning Gibbous
May 21
Last Quarter
May 28
New
Jun 5
First Quarter
Jun 12
Full

Hourly Weather History & Observations

Time (CDT) Temp. Heat Index Dew Point Humidity Pressure Visibility Wind Dir Wind Speed Gust Speed Precip Events Conditions
12:15 AM 68.0 °F - 62.6 °F 83% 30.05 in 10.0 mi South 8.1 mph - N/A   Clear
12:35 AM 66.2 °F - 62.6 °F 88% 30.05 in 10.0 mi South 8.1 mph - N/A   Clear
12:55 AM 68.0 °F - 62.6 °F 83% 30.04 in 10.0 mi South 9.2 mph - N/A   Clear
1:15 AM 68.0 °F - 60.8 °F 78% 30.04 in 10.0 mi South 10.4 mph 16.1 mph N/A   Clear
1:35 AM 66.2 °F - 60.8 °F 83% 30.04 in 10.0 mi South 10.4 mph 16.1 mph N/A   Clear
1:55 AM 68.0 °F - 60.8 °F 78% 30.04 in 10.0 mi South 9.2 mph - N/A   Clear
2:15 AM 66.2 °F - 59.0 °F 78% 30.03 in 10.0 mi South 6.9 mph - N/A   Clear
2:35 AM 66.2 °F - 59.0 °F 78% 30.03 in 10.0 mi South 9.2 mph - N/A   Scattered Clouds
2:55 AM 66.2 °F - 59.0 °F 78% 30.04 in 10.0 mi South 8.1 mph - N/A   Partly Cloudy
3:15 AM 66.2 °F - 57.2 °F 73% 30.04 in 10.0 mi South 8.1 mph - N/A   Clear
3:35 AM 66.2 °F - 57.2 °F 73% 30.04 in 10.0 mi SSW 9.2 mph - N/A   Clear
3:55 AM 66.2 °F - 57.2 °F 73% 30.05 in 10.0 mi South 6.9 mph - N/A   Clear
4:15 AM 66.2 °F - 57.2 °F 73% 30.05 in 10.0 mi South 8.1 mph - N/A   Partly Cloudy
4:35 AM 66.2 °F - 57.2 °F 73% 30.06 in 10.0 mi South 8.1 mph - N/A   Clear
4:55 AM 66.2 °F - 57.2 °F 73% 30.06 in 10.0 mi South 6.9 mph - N/A   Clear
5:15 AM 64.4 °F - 57.2 °F 77% 30.08 in 10.0 mi South 5.8 mph - N/A   Clear
5:35 AM 64.4 °F - 57.2 °F 77% 30.08 in 10.0 mi South 9.2 mph - N/A   Clear
5:55 AM 64.4 °F - 57.2 °F 77% 30.10 in 10.0 mi South 5.8 mph - N/A   Clear
6:15 AM 64.4 °F - 57.2 °F 77% 30.11 in 10.0 mi South 5.8 mph - N/A   Clear
6:35 AM 64.4 °F - 57.2 °F 77% 30.11 in 10.0 mi South 6.9 mph - N/A   Clear
6:55 AM 64.4 °F - 57.2 °F 77% 30.12 in 10.0 mi South 8.1 mph - N/A   Clear
7:15 AM 66.2 °F - 57.2 °F 73% 30.12 in 10.0 mi South 8.1 mph - N/A   Clear
7:35 AM 66.2 °F - 57.2 °F 73% 30.12 in 10.0 mi South 10.4 mph - N/A   Clear
7:55 AM 68.0 °F - 59.0 °F 73% 30.11 in 10.0 mi SSW 10.4 mph 16.1 mph N/A   Clear
8:15 AM 69.8 °F - 59.0 °F 68% 30.11 in 10.0 mi SSW 8.1 mph - N/A   Clear
8:35 AM 69.8 °F - 59.0 °F 68% 30.11 in 10.0 mi SW 11.5 mph 18.4 mph N/A   Clear
8:55 AM 71.6 °F - 59.0 °F 64% 30.11 in 10.0 mi SSW 9.2 mph 20.7 mph N/A   Clear
9:15 AM 73.4 °F - 60.8 °F 65% 30.11 in 10.0 mi SSW 12.7 mph 23.0 mph N/A   Clear
9:35 AM 73.4 °F - 62.6 °F 69% 30.11 in 10.0 mi SW 18.4 mph 25.3 mph N/A   Clear
9:55 AM 75.2 °F - 60.8 °F 61% 30.10 in 10.0 mi SW 18.4 mph 31.1 mph N/A   Clear
10:15 AM 75.2 °F - 59.0 °F 57% 30.10 in 10.0 mi SW 17.3 mph 29.9 mph N/A   Clear
10:35 AM 75.2 °F - 57.2 °F 53% 30.09 in 10.0 mi SW 15.0 mph 28.8 mph N/A   Clear
10:55 AM 75.2 °F - 57.2 °F 53% 30.09 in 10.0 mi SSW 16.1 mph 28.8 mph N/A   Clear
11:15 AM 77.0 °F - 57.2 °F 50% 30.09 in 10.0 mi SW 16.1 mph 26.5 mph N/A   Clear
11:35 AM 77.0 °F - 59.0 °F 54% 30.09 in 10.0 mi SSW 10.4 mph 25.3 mph N/A   Clear
11:55 AM 77.0 °F - 59.0 °F 54% 30.09 in 10.0 mi SW 16.1 mph 26.5 mph N/A   Clear
12:15 PM 77.0 °F - 59.0 °F 54% 30.08 in 10.0 mi SW 16.1 mph 25.3 mph N/A   Clear
12:35 PM 77.0 °F - 59.0 °F 54% 30.07 in 10.0 mi SSW 16.1 mph 24.2 mph N/A   Clear
12:55 PM 78.8 °F - 60.8 °F 54% 30.06 in 10.0 mi SW 10.4 mph 24.2 mph N/A   Clear
1:15 PM 80.6 °F 81.5 °F 60.8 °F 51% 30.06 in 10.0 mi WSW 18.4 mph 27.6 mph N/A   Clear
1:35 PM 80.6 °F 81.5 °F 60.8 °F 51% 30.05 in 10.0 mi SW 16.1 mph 25.3 mph N/A   Clear
1:55 PM 80.6 °F 81.1 °F 59.0 °F 48% 30.05 in 10.0 mi SW 18.4 mph 28.8 mph N/A   Clear
2:35 PM 80.6 °F 81.1 °F 59.0 °F 48% 30.05 in 10.0 mi SW 19.6 mph 32.2 mph N/A   Clear
2:55 PM 80.6 °F 81.1 °F 59.0 °F 48% 30.03 in 10.0 mi SSW 18.4 mph 25.3 mph N/A   Clear
3:15 PM 80.6 °F 81.1 °F 59.0 °F 48% 30.03 in 10.0 mi SSW 18.4 mph 26.5 mph N/A   Clear
3:35 PM 82.4 °F 82.5 °F 59.0 °F 45% 30.03 in 10.0 mi SSW 11.5 mph 24.2 mph N/A   Clear
3:55 PM 82.4 °F 82.5 °F 59.0 °F 45% 30.02 in 10.0 mi SW 16.1 mph 25.3 mph N/A   Clear
4:15 PM 82.4 °F 82.0 °F 57.2 °F 42% 30.01 in 10.0 mi SW 17.3 mph 27.6 mph N/A   Clear
4:35 PM 82.4 °F 82.0 °F 57.2 °F 42% 30.01 in 10.0 mi SW 15.0 mph 25.3 mph N/A   Clear
4:55 PM 80.6 °F 80.8 °F 57.2 °F 45% 30.01 in 10.0 mi SW 13.8 mph 28.8 mph N/A   Clear
5:15 PM 80.6 °F 80.8 °F 57.2 °F 45% 30.01 in 10.0 mi SW 19.6 mph 26.5 mph N/A   Clear
5:35 PM 80.6 °F 80.8 °F 57.2 °F 45% 30.00 in 10.0 mi SW 12.7 mph 25.3 mph N/A   Clear
5:55 PM 80.6 °F 80.8 °F 57.2 °F 45% 29.99 in 10.0 mi SW 18.4 mph 26.5 mph N/A   Clear
6:15 PM 80.6 °F 80.8 °F 57.2 °F 45% 29.99 in 10.0 mi SSW 18.4 mph 27.6 mph N/A   Clear
6:35 PM 80.6 °F 81.1 °F 59.0 °F 48% 29.99 in 10.0 mi SSW 13.8 mph 20.7 mph N/A   Clear
6:55 PM 78.8 °F - 59.0 °F 51% 29.98 in 10.0 mi SW 10.4 mph 21.9 mph N/A   Clear
7:15 PM 77.0 °F - 59.0 °F 54% 29.98 in 10.0 mi SW 10.4 mph 17.3 mph N/A   Clear
7:35 PM 77.0 °F - 59.0 °F 54% 29.98 in 10.0 mi SW 11.5 mph 21.9 mph N/A   Clear
7:55 PM 77.0 °F - 59.0 °F 54% 29.98 in 10.0 mi SSW 10.4 mph 17.3 mph N/A   Clear
8:15 PM 75.2 °F - 59.0 °F 57% 29.98 in 10.0 mi SSW 9.2 mph 18.4 mph N/A   Clear
8:35 PM 75.2 °F - 59.0 °F 57% 29.98 in 10.0 mi SSW 8.1 mph - N/A   Clear
8:55 PM 75.2 °F - 60.8 °F 61% 29.98 in 10.0 mi SSW 10.4 mph - N/A   Clear
9:35 PM 73.4 °F - 60.8 °F 65% 29.99 in 10.0 mi SSW 8.1 mph - N/A   Clear
9:55 PM 73.4 °F - 59.0 °F 61% 29.99 in 10.0 mi SW 12.7 mph 18.4 mph N/A   Clear
10:15 PM 73.4 °F - 59.0 °F 61% 29.99 in 10.0 mi SSW 9.2 mph 16.1 mph N/A   Clear
10:35 PM 73.4 °F - 59.0 °F 61% 29.99 in 10.0 mi SW 10.4 mph 17.3 mph N/A   Clear
10:55 PM 71.6 °F - 59.0 °F 64% 29.98 in 10.0 mi SW 9.2 mph 17.3 mph N/A   Clear
11:15 PM 71.6 °F - 59.0 °F 64% 29.98 in 10.0 mi SW 9.2 mph - N/A   Clear
11:35 PM 71.6 °F - 59.0 °F 64% 29.98 in 10.0 mi SW 11.5 mph 16.1 mph N/A   Clear
11:55 PM 71.6 °F - 59.0 °F 64% 29.99 in 10.0 mi SW 11.5 mph 18.4 mph N/A   Clear